{"data":{"norad_id":49314,"epoch":"2026-09-20T00:39:08.428032Z","epoch_age_seconds":66549,"freshness":"FRESH","line1":"1 49314U 21090AM  26263.02718088 -.00000157  00000+0 -42427-3 0  9992","line2":"2 49314  87.9108 286.0714 0002022  93.4407 266.6957 13.19724754238925","mean_motion":13.19724754,"eccentricity":0.0002022,"inclination_deg":87.9108,"raan_deg":286.0714,"arg_perigee_deg":93.4407,"mean_anomaly_deg":266.6957,"bstar":-0.00042427,"rev_number":23892,"period_min":109.11366143853,"perigee_km":1184.2420696549,"apogee_km":1187.300914249,"semimajor_km":7563.908491952,"source":"CELESTRAK","updated_at":"2026-09-20T09:00:44.676152Z"}}